STARLINK-6096 (56103 NORAD) Tracking and Keplerian Element Data

This shows tracking and keplerian element data for the satellite.

Feedback or suggestion? Click here.




ElementValue
Catalog56103
NameSTARLINK-6096
Epoch Orbit652
Epoch Day127.25001157
Epoch Year2023
RAAN37.8265
Inclination43.0007
Eccentricity0.0001497
Argument of Perigee272.842
Mean Anonmoly97.4809
Mean Motion15.29049838
Decay Rate-0.0090193
L11 56103U 23046L 23127.25001157 -.00901930 00000+0 -34169-1 0 9993
L22 56103 43.0007 37.8265 0001497 272.8420 97.4809 15.29049838 6527



Live tracking and technical data element details for STARLINK-6096 (NORAD 56103). STARLINK-6096 can be tracked NOW for your location showing map with azimuth and elevation plus other details from your city location.







IsCatalogInMostPopularTable: catalog: 56103, numindb: 1
Update: records affected: 1



GetName: 56103 STARLINK-6096

Hit Count: updated at: Sun, 04 Jun 2023 23:22:51 GMT